When you browse on this site, cookies collect data to enhance your experience and personalize the content and advertising you see.
Visit our Privacy Policy to learn more. By continuing to use the site, you agree to this use of cookies and data.
  • In Latvia
  • List of Countries
  • For 7 days
  • Water Temperature
  • Weather Map
  • Weather Widgets
  • user-avatar
    Login

    Hourly Weather Armagh

    Today, 19 September, Thursday

    Time Temperature Precipitation Wind Pressure Humidity
    00:00 +11°C° 0 mm 0 mps 768 mmHg 92%
    01:00 +10°C° 0 mm 0 mps 768 mmHg 92%
    02:00 +10°C° 0 mm 0 mps 768 mmHg 92%
    03:00 +10°C° 0 mm 0 mps 767 mmHg 92%
    04:00 +10°C° 0 mm 0 mps 767 mmHg 92%
    05:00 +10°C° 0 mm 0 mps 767 mmHg 92%
    06:00 +9°C° 0 mm 0 mps 768 mmHg 93%
    07:00 +11°C° 0 mm 0 mps 768 mmHg 89%
    08:00 +14°C° 0 mm 1 mps 768 mmHg 85%
    09:00 +15°C° 0 mm 1 mps 768 mmHg 82%
    10:00 +18°C° 0 mm 1 mps 768 mmHg 78%
    11:00 +19°C° 0 mm 1 mps 768 mmHg 75%
    12:00 +19°C° 0 mm 2 mps 768 mmHg 71%
    13:00 +19°C° 0 mm 2 mps 767 mmHg 72%
    14:00 +19°C° 0 mm 2 mps 767 mmHg 72%
    15:00 +20°C° 0 mm 2 mps 767 mmHg 72%
    16:00 +18°C° 0 mm 2 mps 767 mmHg 77%
    17:00 +17°C° 0 mm 2 mps 766 mmHg 82%
    18:00 +15°C° 0 mm 2 mps 766 mmHg 87%
    19:00 +14°C° 0 mm 2 mps 766 mmHg 88%
    20:00 +13°C° 0 mm 2 mps 766 mmHg 89%
    21:00 +12°C° 0 mm 1 mps 766 mmHg 90%
    22:00 +11°C° 0 mm 1 mps 766 mmHg 90%
    23:00 +11°C° 0 mm 1 mps 766 mmHg 91%

    Tomorrow, 20 September, Friday

    Time Temperature Precipitation Wind Pressure Humidity
    00:00 +11°C° 0 mm 1 mps 765 mmHg 91%
    01:00 +11°C° 0 mm 1 mps 765 mmHg 92%
    02:00 +11°C° 0 mm 1 mps 765 mmHg 93%
    03:00 +11°C° 0 mm 1 mps 764 mmHg 94%
    04:00 +11°C° 0 mm 1 mps 764 mmHg 94%
    05:00 +11°C° 0 mm 1 mps 763 mmHg 94%
    06:00 +11°C° 0 mm 1 mps 762 mmHg 95%
    07:00 +12°C° 0 mm 2 mps 762 mmHg 92%
    08:00 +13°C° 0 mm 3 mps 762 mmHg 88%
    09:00 +16°C° 0 mm 3 mps 762 mmHg 85%
    10:00 +17°C° 0 mm 4 mps 762 mmHg 81%
    11:00 +17°C° 0 mm 5 mps 761 mmHg 77%
    12:00 +19°C° 0 mm 5 mps 760 mmHg 72%
    13:00 +17°C° 0 mm 6 mps 760 mmHg 72%
    14:00 +17°C° 0 mm 6 mps 759 mmHg 72%
    15:00 +17°C° 0 mm 6 mps 758 mmHg 72%
    16:00 +16°C° 0 mm 5 mps 758 mmHg 75%
    17:00 +15°C° 0 mm 5 mps 757 mmHg 79%
    18:00 +14°C° 0 mm 4 mps 757 mmHg 83%
    19:00 +13°C° 0 mm 4 mps 756 mmHg 85%
    20:00 +13°C° 0 mm 4 mps 756 mmHg 86%
    21:00 +13°C° 0 mm 5 mps 756 mmHg 88%
    22:00 +13°C° 0 mm 5 mps 755 mmHg 84%
    23:00 +13°C° 0 mm 5 mps 754 mmHg 81%

    Day after tomorrow, 21 September, Saturday

    Time Temperature Precipitation Wind Pressure Humidity
    00:00 +13°C° 0 mm 6 mps 754 mmHg 78%
    01:00 +13°C° 0 mm 6 mps 753 mmHg 77%
    02:00 +11°C° 0 mm 6 mps 753 mmHg 77%
    03:00 +11°C° 0 mm 6 mps 752 mmHg 76%
    04:00 +11°C° 0 mm 6 mps 752 mmHg 77%
    05:00 +11°C° 0 mm 6 mps 751 mmHg 78%
    06:00 +11°C° 0 mm 6 mps 751 mmHg 79%
    07:00 +13°C° 0 mm 6 mps 750 mmHg 77%
    08:00 +12°C° 0 mm 7 mps 750 mmHg 75%
    09:00 +14°C° 0 mm 7 mps 749 mmHg 73%
    10:00 +15°C° 0 mm 7 mps 749 mmHg 71%
    11:00 +16°C° 0 mm 7 mps 749 mmHg 69%
    12:00 +17°C° 0 mm 8 mps 748 mmHg 67%
    13:00 +17°C° 0 mm 7 mps 748 mmHg 70%
    14:00 +17°C° 0 mm 7 mps 747 mmHg 74%
    15:00 +17°C° 0 mm 7 mps 747 mmHg 77%
    16:00 +16°C° 0 mm 6 mps 747 mmHg 80%
    17:00 +16°C° 0 mm 6 mps 746 mmHg 83%
    18:00 +16°C° 0 mm 5 mps 746 mmHg 85%
    19:00 +16°C° 0 mm 5 mps 746 mmHg 87%
    20:00 +17°C° 0 mm 4 mps 746 mmHg 89%
    21:00 +17°C° 0 mm 4 mps 746 mmHg 91%
    22:00 +15°C° 0 mm 4 mps 746 mmHg 93%
    23:00 +15°C° 0 mm 4 mps 746 mmHg 95%

    22 September, Sunday

    Time Temperature Precipitation Wind Pressure Humidity
    00:00 +16°C° 0 mm 3 mps 745 mmHg 96%
    01:00 +16°C° 0.1 mm 3 mps 745 mmHg 95%
    02:00 +15°C° 0.1 mm 4 mps 745 mmHg 94%
    03:00 +15°C° 0.1 mm 4 mps 744 mmHg 93%
    04:00 +15°C° 0.1 mm 4 mps 744 mmHg 94%
    05:00 +15°C° 0.1 mm 4 mps 744 mmHg 95%
    06:00 +15°C° 0.1 mm 4 mps 744 mmHg 95%
    07:00 +15°C° 0.8 mm 4 mps 744 mmHg 95%
    08:00 +15°C° 0.8 mm 4 mps 744 mmHg 95%
    09:00 +17°C° 0.8 mm 4 mps 744 mmHg 95%
    10:00 +16°C° 0.6 mm 3 mps 744 mmHg 95%
    11:00 +16°C° 0.6 mm 3 mps 745 mmHg 95%
    12:00 +15°C° 0.6 mm 2 mps 745 mmHg 95%
    13:00 +15°C° 0.5 mm 2 mps 745 mmHg 94%
    14:00 +16°C° 0.5 mm 1 mps 745 mmHg 94%
    15:00 +16°C° 0.5 mm 1 mps 745 mmHg 94%
    16:00 +15°C° 0.1 mm 1 mps 745 mmHg 94%
    17:00 +15°C° 0.1 mm 1 mps 746 mmHg 95%
    18:00 +15°C° 0.1 mm 1 mps 746 mmHg 95%
    19:00 +14°C° 0 mm 1 mps 746 mmHg 95%
    20:00 +13°C° 0 mm 1 mps 747 mmHg 96%
    21:00 +13°C° 0 mm 1 mps 747 mmHg 96%
    22:00 +12°C° 0 mm 1 mps 747 mmHg 96%
    23:00 +12°C° 0 mm 1 mps 748 mmHg 96%

    23 September, Monday

    Time Temperature Precipitation Wind Pressure Humidity
    00:00 +12°C° 0 mm 1 mps 748 mmHg 96%
    01:00 +12°C° 0 mm 1 mps 748 mmHg 96%
    02:00 +12°C° 0 mm 1 mps 748 mmHg 97%
    03:00 +12°C° 0 mm 2 mps 748 mmHg 98%
    04:00 +12°C° 0 mm 2 mps 748 mmHg 98%
    05:00 +12°C° 0 mm 2 mps 749 mmHg 97%
    06:00 +12°C° 0 mm 2 mps 749 mmHg 97%
    07:00 +13°C° 0 mm 2 mps 749 mmHg 96%
    08:00 +13°C° 0 mm 2 mps 749 mmHg 94%
    09:00 +13°C° 0 mm 2 mps 749 mmHg 92%
    10:00 +13°C° 0 mm 3 mps 749 mmHg 87%
    11:00 +14°C° 0 mm 3 mps 749 mmHg 82%
    12:00 +15°C° 0 mm 4 mps 749 mmHg 77%
    13:00 +15°C° 0 mm 4 mps 749 mmHg 77%
    14:00 +16°C° 0 mm 5 mps 748 mmHg 77%
    15:00 +16°C° 0 mm 5 mps 748 mmHg 78%
    16:00 +15°C° 0.2 mm 5 mps 747 mmHg 83%
    17:00 +14°C° 0.2 mm 5 mps 747 mmHg 89%
    18:00 +14°C° 0.2 mm 5 mps 746 mmHg 95%
    19:00 +14°C° 0.8 mm 5 mps 746 mmHg 95%
    20:00 +14°C° 0.8 mm 5 mps 746 mmHg 96%
    21:00 +15°C° 0.8 mm 5 mps 746 mmHg 97%
    22:00 +15°C° 0.1 mm 4 mps 746 mmHg 97%
    23:00 +16°C° 0.1 mm 3 mps 746 mmHg 97%

    24 September, Tuesday

    Time Temperature Precipitation Wind Pressure Humidity
    00:00 +16°C° 0.1 mm 3 mps 746 mmHg 98%
    01:00 +16°C° 0 mm 2 mps 746 mmHg 98%
    02:00 +15°C° 0 mm 2 mps 746 mmHg 98%
    03:00 +15°C° 0 mm 2 mps 746 mmHg 98%
    04:00 +15°C° 0 mm 2 mps 745 mmHg 98%
    05:00 +15°C° 0 mm 2 mps 745 mmHg 98%
    06:00 +15°C° 0 mm 2 mps 745 mmHg 98%
    07:00 +16°C° 0.2 mm 2 mps 744 mmHg 97%
    08:00 +16°C° 0.2 mm 2 mps 744 mmHg 97%
    09:00 +16°C° 0.2 mm 2 mps 744 mmHg 97%
    10:00 +16°C° 1.8 mm 3 mps 743 mmHg 97%
    11:00 +16°C° 1.8 mm 3 mps 742 mmHg 97%
    12:00 +15°C° 1.8 mm 4 mps 742 mmHg 97%
    13:00 +16°C° 2.3 mm 3 mps 741 mmHg 97%
    14:00 +16°C° 2.3 mm 2 mps 741 mmHg 98%
    15:00 +16°C° 2.3 mm 2 mps 740 mmHg 98%
    16:00 +16°C° 0.2 mm 2 mps 740 mmHg 97%
    17:00 +16°C° 0.2 mm 2 mps 740 mmHg 97%
    18:00 +16°C° 0.2 mm 3 mps 739 mmHg 96%
    19:00 +14°C° 0 mm 3 mps 740 mmHg 96%
    20:00 +13°C° 0 mm 4 mps 740 mmHg 97%
    21:00 +13°C° 0 mm 4 mps 740 mmHg 97%
    22:00 +12°C° 0 mm 4 mps 740 mmHg 96%
    23:00 +11°C° 0 mm 3 mps 740 mmHg 96%
    Show more